TJS-17 AKM, 63629

Orbit data source: Space-Track

TJS-17 AKM, 63629 is space debris in GEO originally from a launch on Thu, 10 Apr 2025 UTC launched from the Xichang Space Center, China (XSC). Debris objects in space refer to the collection of defunct objects orbiting the Earth. Examples of debris include non-operational satellites, rocket bodies, and fragments generated from explosions, collisions, or faulty payload assembly.

Not visible in the next 10 days
Identifier
63629, 2025-073C
Orbit
GEO
Last TLE update
14 hours ago
Origin
Flag of CNCASC (CN / PRC)
Manufacturer
CAST
Mission
Spacecraft
Bus & Motor
Unknown
Mass
~500 kg wet, ~500 kg dry
Launch date (UTC)
2025-04-10 (1 month ago)
Launch vehicle
Unknown
Launch site
Xichang Space Center, China (XSC)
Object type
Payload
Rocket body
Debris
Shape & HBR
Unknown
Radar Cross Section
RCS unknown

Expand to show TLE details & history

TLE from 14 hours ago
0 TJS-17 AKM
1 63629U 25073C   25129.27463820 -.00000002  00000-0  00000+0 0  9996
2 63629   0.0459  41.3699 0010667 117.6840 200.9936  0.98860791   259
Epoch: 2025-05-09T06:35Z
Definitive object data (Epoch: 2025-05-09T06:35:28.74Z)
Latitude
0.00654°
Longitude
33.79719°
Altitude
36,228.671 km
Speed
3.057 km/s
True Right ascension
00h 00m 00s
True Declination
0° 00' 24"
Sunlit
Object was in daylight at TLE epoch
Visualization TLE readout
Latitude
-0.01674°
Longitude
-123.97284°
Altitude
36,153.112 km
Speed
3.063 km/s
Apparent Right ascension
13h 45m 46s
Apparent Declination
-5° 03' 07"
Sunlit
Object is in daylight
Visualization observer readout
Local Sidereal Time
04:24:17
Azimuth
56.239° ENE
Elevation
-40.159°
Doppler factor
1
Orbital elements
Apogee altitude
36,233.311 km
Perigee altitude
36,142.501 km
Semi-major axis
42,566.043 km
Eccentricity
0.0010667
Inclination
0.0459°
RAAN
41.3699°
Arg. of periapsis
117.684°
True anomaly
200.94986°
Mean anomaly
200.9936°
Eccentric anomaly
200.97173°
Mean motion
0.24714 °/min
BSTAR
Unknown
Orbital period
1456.65 mins
Loading historical data...
63629 neighbors
Loading maneuver chart data...
Loading SW <> Apogee altitude chart data...
Loading historical data...
Loading historical data...
Loading historical data...
Loading historical data...
Loading historical data...
Loading historical data...
Loading historical data...
Other satellites on launch #73 in the year 2025 (2025-04-10 UTC)

TJS-17 AKM Visibility forecast

Observer location: undefined°, undefined°

TJS-17 AKM is not visible in the next 10 days
Span
Click to sort rows by Start time (UTC) header in descending order
Start Az.
Max El. time (UTC)
Max El. Az.
Max El.
End time (UTC)
End Az.
|